Location: Grange Verzio
(44.5000°N, 6.9833°E)
Time: 17:43:21
(UTC+00:00)

Cosmos 2219 Rocket - Pass Details

Date: 27 September 2023
Orbit: 826 x 848 km, 71.0° (Epoch: 08 December)

Event Time Altitude Azimuth Distance (km) Brightness Sun altitude
Rises 04:45:52 0° 326° (NW) 3,396 5.1 -7.7°
Reaches altitude 10° 04:48:30 10° 318° (NW) 2,461 4.3 -7.3°
Maximum altitude 04:53:31 34° 255° (WSW) 1,361 2.8 -6.4°
Drops below altitude 10° 04:58:31 10° 192° (SSW) 2,457 4.5 -5.5°
Sets 05:01:09 0° 183° (S) 3,390 5.3 -5.0°
